Time,TemperatureF,DewpointF,PressureIn,WindDirection,WindDirectionDegrees,WindSpeedMPH,WindSpeedGustMPH,Humidity,HourlyPrecipIn,Conditions,Clouds,dailyrainin,SoftwareType,DateUTC
2013-09-14 00:01:00,56.8,42.7,29.44,NNE,22,6.0,6.0,59,0.00,,,0.00,VWS V14.01,2013-09-14 04:01:00,
2013-09-14 00:02:00,56.8,42.7,29.44,NNE,22,4.9,4.9,59,0.00,,,0.00,VWS V14.01,2013-09-14 04:02:00,
2013-09-14 00:03:00,56.8,42.7,29.44,NNE,22,4.7,4.7,59,0.00,,,0.00,VWS V14.01,2013-09-14 04:03:00,
2013-09-14 00:04:00,56.8,42.7,29.44,NNE,22,5.8,5.8,59,0.00,,,0.00,VWS V14.01,2013-09-14 04:04:00,
2013-09-14 00:09:00,56.8,42.7,29.44,NNE,22,7.4,7.4,59,0.00,,,0.00,VWS V14.01,2013-09-14 04:09:00,
2013-09-14 00:15:00,56.7,42.5,29.44,North,0,10.5,10.5,59,0.00,,,0.00,VWS V14.01,2013-09-14 04:15:00,
2013-09-14 00:20:00,56.7,42.5,29.44,NNE,22,7.2,7.2,59,0.00,,,0.00,VWS V14.01,2013-09-14 04:20:00,
2013-09-14 00:25:00,56.7,42.5,29.47,North,0,6.3,6.3,59,0.00,,,0.00,VWS V14.01,2013-09-14 04:25:00,
2013-09-14 00:30:00,56.7,42.1,29.47,North,0,4.7,4.7,58,0.00,,,0.00,VWS V14.01,2013-09-14 04:30:00,
2013-09-14 00:35:00,56.7,42.1,29.47,NNE,22,3.4,3.4,58,0.00,,,0.00,VWS V14.01,2013-09-14 04:35:00,
2013-09-14 00:40:00,56.8,42.2,29.44,North,0,4.7,4.7,58,0.00,,,0.00,VWS V14.01,2013-09-14 04:40:00,
2013-09-14 00:45:00,56.8,42.7,29.44,NNW,338,3.1,3.1,59,0.00,,,0.00,VWS V14.01,2013-09-14 04:45:00,
2013-09-14 00:50:00,56.8,42.2,29.44,North,0,2.0,2.0,58,0.00,,,0.00,VWS V14.01,2013-09-14 04:50:00,
2013-09-14 00:55:00,56.8,41.8,29.44,NW,315,3.1,3.1,57,0.00,,,0.00,VWS V14.01,2013-09-14 04:55:00,
2013-09-14 01:00:00,56.8,42.7,29.44,NNE,22,2.9,2.9,59,0.00,,,0.00,VWS V14.01,2013-09-14 05:00:00,
2013-09-14 01:05:00,56.8,42.7,29.44,North,0,3.8,3.8,59,0.00,,,0.00,VWS V14.01,2013-09-14 05:05:00,
2013-09-14 01:10:00,56.8,42.7,29.47,NNW,338,4.3,4.3,59,0.00,,,0.00,VWS V14.01,2013-09-14 05:10:00,
2013-09-14 01:15:00,56.8,42.7,29.47,North,0,4.3,4.3,59,0.00,,,0.00,VWS V14.01,2013-09-14 05:15:00,
2013-09-14 01:21:00,56.8,42.7,29.47,NNE,22,6.5,6.5,59,0.00,,,0.00,VWS V14.01,2013-09-14 05:21:00,
2013-09-14 01:26:00,56.8,42.7,29.47,North,0,3.4,3.4,59,0.00,,,0.00,VWS V14.01,2013-09-14 05:26:00,
2013-09-14 01:31:00,56.8,42.7,29.47,NNE,22,4.9,4.9,59,0.00,,,0.00,VWS V14.01,2013-09-14 05:31:00,
2013-09-14 01:36:00,56.8,42.7,29.47,NNW,338,2.9,2.9,59,0.00,,,0.00,VWS V14.01,2013-09-14 05:36:00,
2013-09-14 01:41:00,56.8,42.7,29.47,NNW,338,3.1,3.1,59,0.00,,,0.00,VWS V14.01,2013-09-14 05:41:00,
2013-09-14 01:46:00,56.8,42.2,29.47,NNW,338,5.6,5.6,58,0.00,,,0.00,VWS V14.01,2013-09-14 05:46:00,
2013-09-14 01:51:00,56.8,42.7,29.47,NNW,338,2.0,2.0,59,0.00,,,0.00,VWS V14.01,2013-09-14 05:51:00,
2013-09-14 01:56:00,56.7,42.5,29.44,NNE,22,4.5,4.5,59,0.00,,,0.00,VWS V14.01,2013-09-14 05:56:00,
2013-09-14 02:01:00,56.7,42.5,29.44,NNE,22,2.5,2.5,59,0.00,,,0.00,VWS V14.01,2013-09-14 06:01:00,
2013-09-14 02:06:00,56.3,42.6,29.44,NNE,22,4.0,4.0,60,0.00,,,0.00,VWS V14.01,2013-09-14 06:06:00,
2013-09-14 02:11:00,56.3,42.6,29.47,NNE,22,5.4,5.4,60,0.00,,,0.00,VWS V14.01,2013-09-14 06:11:00,
2013-09-14 02:16:00,56.3,42.6,29.47,North,0,4.9,4.9,60,0.00,,,0.00,VWS V14.01,2013-09-14 06:16:00,
2013-09-14 02:22:00,56.3,42.6,29.47,NNE,22,4.0,4.0,60,0.00,,,0.00,VWS V14.01,2013-09-14 06:22:00,
2013-09-14 02:27:00,56.3,42.6,29.47,North,0,4.9,4.9,60,0.00,,,0.00,VWS V14.01,2013-09-14 06:27:00,
2013-09-14 02:32:00,56.3,43.0,29.47,NNE,22,4.9,4.9,61,0.00,,,0.00,VWS V14.01,2013-09-14 06:32:00,
2013-09-14 02:37:00,56.1,42.9,29.47,NNE,22,5.8,5.8,61,0.00,,,0.00,VWS V14.01,2013-09-14 06:37:00,
2013-09-14 02:42:00,56.1,42.4,29.47,NW,315,3.4,3.4,60,0.00,,,0.00,VWS V14.01,2013-09-14 06:42:00,
2013-09-14 02:47:00,56.1,42.4,29.47,NW,315,4.7,4.7,60,0.00,,,0.00,VWS V14.01,2013-09-14 06:47:00,
2013-09-14 02:52:00,56.1,42.4,29.47,NW,315,1.3,1.3,60,0.00,,,0.00,VWS V14.01,2013-09-14 06:52:00,
2013-09-14 02:57:00,56.1,42.4,29.47,NNW,338,2.9,2.9,60,0.00,,,0.00,VWS V14.01,2013-09-14 06:57:00,
2013-09-14 03:02:00,56.1,42.9,29.47,NNW,338,2.2,2.2,61,0.00,,,0.00,VWS V14.01,2013-09-14 07:02:00,
2013-09-14 03:07:00,55.9,42.7,29.47,North,0,3.6,3.6,61,0.00,,,0.00,VWS V14.01,2013-09-14 07:07:00,
2013-09-14 03:12:00,55.9,42.7,29.47,NNW,338,2.0,2.0,61,0.00,,,0.00,VWS V14.01,2013-09-14 07:12:00,
2013-09-14 03:17:00,55.9,42.7,29.47,NNW,338,2.9,2.9,61,0.00,,,0.00,VWS V14.01,2013-09-14 07:17:00,
2013-09-14 03:22:00,55.8,42.5,29.47,NNW,338,4.3,4.3,61,0.00,,,0.00,VWS V14.01,2013-09-14 07:22:00,
2013-09-14 03:27:00,55.8,42.5,29.47,NNW,338,3.4,3.4,61,0.00,,,0.00,VWS V14.01,2013-09-14 07:27:00,
2013-09-14 03:33:00,55.8,42.5,29.47,NNW,338,4.3,4.3,61,0.00,,,0.00,VWS V14.01,2013-09-14 07:33:00,
2013-09-14 03:38:00,55.6,42.8,29.47,NW,315,3.4,3.4,62,0.00,,,0.00,VWS V14.01,2013-09-14 07:38:00,
2013-09-14 03:43:00,55.4,42.2,29.47,NNW,338,3.8,3.8,61,0.00,,,0.00,VWS V14.01,2013-09-14 07:43:00,
2013-09-14 03:48:00,55.2,42.4,29.47,NNW,338,1.6,1.6,62,0.00,,,0.00,VWS V14.01,2013-09-14 07:48:00,
2013-09-14 03:53:00,55.0,42.3,29.47,West,270,1.1,1.1,62,0.00,,,0.00,VWS V14.01,2013-09-14 07:53:00,
2013-09-14 03:58:00,54.9,42.1,29.47,WNW,292,1.6,1.6,62,0.00,,,0.00,VWS V14.01,2013-09-14 07:58:00,
2013-09-14 04:03:00,54.7,41.9,29.47,WNW,292,2.5,2.5,62,0.00,,,0.00,VWS V14.01,2013-09-14 08:03:00,
2013-09-14 04:08:00,54.5,42.2,29.47,WNW,292,1.3,1.3,63,0.00,,,0.00,VWS V14.01,2013-09-14 08:08:00,
2013-09-14 04:13:00,54.3,42.0,29.47,NW,315,0.0,0.0,63,0.00,,,0.00,VWS V14.01,2013-09-14 08:13:00,
2013-09-14 04:18:00,54.3,42.4,29.47,NW,315,0.0,0.0,64,0.00,,,0.00,VWS V14.01,2013-09-14 08:18:00,
2013-09-14 04:23:00,54.1,42.2,29.47,NW,315,0.0,0.0,64,0.00,,,0.00,VWS V14.01,2013-09-14 08:23:00,
2013-09-14 04:28:00,54.0,42.5,29.47,North,0,1.6,1.6,65,0.00,,,0.00,VWS V14.01,2013-09-14 08:28:00,
2013-09-14 04:33:00,53.8,42.3,29.47,NNW,338,1.1,1.1,65,0.00,,,0.00,VWS V14.01,2013-09-14 08:33:00,
2013-09-14 04:38:00,53.4,42.4,29.47,NW,315,1.1,1.1,66,0.00,,,0.00,VWS V14.01,2013-09-14 08:38:00,
2013-09-14 04:43:00,53.2,42.2,29.47,West,270,1.6,1.6,66,0.00,,,0.00,VWS V14.01,2013-09-14 08:43:00,
2013-09-14 04:49:00,53.1,42.4,29.47,WNW,292,2.2,2.2,67,0.00,,,0.00,VWS V14.01,2013-09-14 08:49:00,
2013-09-14 04:54:00,52.7,42.1,29.50,West,270,3.1,3.1,67,0.00,,,0.00,VWS V14.01,2013-09-14 08:54:00,
2013-09-14 04:59:00,52.7,42.1,29.50,West,270,3.4,3.4,67,0.00,,,0.00,VWS V14.01,2013-09-14 08:59:00,
2013-09-14 05:04:00,52.3,42.1,29.50,West,270,2.9,2.9,68,0.00,,,0.00,VWS V14.01,2013-09-14 09:04:00,
2013-09-14 05:09:00,52.3,42.1,29.47,WNW,292,2.9,2.9,68,0.00,,,0.00,VWS V14.01,2013-09-14 09:09:00,
2013-09-14 05:14:00,52.2,41.9,29.47,West,270,2.7,2.7,68,0.00,,,0.00,VWS V14.01,2013-09-14 09:14:00,
2013-09-14 05:19:00,52.2,41.9,29.47,West,270,3.8,3.8,68,0.00,,,0.00,VWS V14.01,2013-09-14 09:19:00,
2013-09-14 05:24:00,52.0,42.1,29.50,West,270,4.0,4.0,69,0.00,,,0.00,VWS V14.01,2013-09-14 09:24:00,
2013-09-14 05:29:00,52.0,42.1,29.50,West,270,3.1,3.1,69,0.00,,,0.00,VWS V14.01,2013-09-14 09:29:00,
2013-09-14 05:34:00,52.0,42.1,29.50,West,270,3.4,3.4,69,0.00,,,0.00,VWS V14.01,2013-09-14 09:34:00,
2013-09-14 05:39:00,52.0,42.1,29.50,WNW,292,2.7,2.7,69,0.00,,,0.00,VWS V14.01,2013-09-14 09:39:00,
2013-09-14 05:44:00,52.0,42.1,29.50,WNW,292,3.1,3.1,69,0.00,,,0.00,VWS V14.01,2013-09-14 09:44:00,
2013-09-14 05:49:00,52.0,42.1,29.50,WNW,292,2.7,2.7,69,0.00,,,0.00,VWS V14.01,2013-09-14 09:49:00,
2013-09-14 05:54:00,52.2,42.3,29.50,NNW,338,3.1,3.1,69,0.00,,,0.00,VWS V14.01,2013-09-14 09:54:00,
2013-09-14 05:59:00,52.2,42.7,29.50,WNW,292,2.9,2.9,70,0.00,,,0.00,VWS V14.01,2013-09-14 09:59:00,
2013-09-14 06:05:00,52.3,42.9,29.50,West,270,2.5,2.5,70,0.00,,,0.00,VWS V14.01,2013-09-14 10:05:00,
2013-09-14 06:10:00,52.3,42.9,29.50,WNW,292,2.5,2.5,70,0.00,,,0.00,VWS V14.01,2013-09-14 10:10:00,
2013-09-14 06:15:00,52.5,43.0,29.50,WNW,292,2.9,2.9,70,0.00,,,0.00,VWS V14.01,2013-09-14 10:15:00,
2013-09-14 06:20:00,52.5,43.0,29.50,WNW,292,2.5,2.5,70,0.00,,,0.00,VWS V14.01,2013-09-14 10:20:00,
2013-09-14 06:25:00,52.7,43.2,29.50,NNW,338,1.6,1.6,70,0.00,,,0.00,VWS V14.01,2013-09-14 10:25:00,
2013-09-14 06:30:00,52.9,43.4,29.50,NW,315,1.3,1.3,70,0.00,,,0.00,VWS V14.01,2013-09-14 10:30:00,
2013-09-14 06:35:00,53.1,43.5,29.50,NNW,338,2.5,2.5,70,0.00,,,0.00,VWS V14.01,2013-09-14 10:35:00,
2013-09-14 06:40:00,53.1,43.9,29.50,NW,315,3.1,3.1,71,0.00,,,0.00,VWS V14.01,2013-09-14 10:40:00,
2013-09-14 06:45:00,53.2,44.1,29.50,NNW,338,1.6,1.6,71,0.00,,,0.00,VWS V14.01,2013-09-14 10:45:00,
2013-09-14 06:50:00,53.2,44.1,29.50,North,0,2.7,2.7,71,0.00,,,0.00,VWS V14.01,2013-09-14 10:50:00,
2013-09-14 06:55:00,53.2,44.1,29.50,NNE,22,2.0,2.0,71,0.00,,,0.00,VWS V14.01,2013-09-14 10:55:00,
2013-09-14 07:00:00,53.4,44.6,29.50,North,0,3.4,3.4,72,0.00,,,0.00,VWS V14.01,2013-09-14 11:00:00,
2013-09-14 07:06:00,53.4,44.6,29.50,NNE,22,3.8,3.8,72,0.00,,,0.00,VWS V14.01,2013-09-14 11:06:00,
2013-09-14 07:11:00,53.6,44.8,29.53,NNE,22,5.6,5.6,72,0.00,,,0.00,VWS V14.01,2013-09-14 11:11:00,
2013-09-14 07:16:00,53.8,45.0,29.53,NE,45,4.3,4.3,72,0.00,,,0.00,VWS V14.01,2013-09-14 11:16:00,
2013-09-14 07:21:00,53.8,45.3,29.53,NNE,22,4.9,4.9,73,0.00,,,0.00,VWS V14.01,2013-09-14 11:21:00,
2013-09-14 07:26:00,53.8,45.7,29.56,NE,45,6.3,6.3,74,0.00,,,0.00,VWS V14.01,2013-09-14 11:26:00,
2013-09-14 07:31:00,53.8,46.0,29.56,NE,45,6.5,6.5,75,0.00,,,0.00,VWS V14.01,2013-09-14 11:31:00,
2013-09-14 07:36:00,53.6,45.9,29.56,NE,45,6.0,6.0,75,0.00,,,0.00,VWS V14.01,2013-09-14 11:36:00,
2013-09-14 07:41:00,53.4,46.4,29.56,NE,45,7.6,7.6,77,0.00,,,0.00,VWS V14.01,2013-09-14 11:41:00,
2013-09-14 07:46:00,53.4,46.4,29.56,NNE,22,3.8,3.8,77,0.00,,,0.00,VWS V14.01,2013-09-14 11:46:00,
2013-09-14 07:51:00,53.4,46.4,29.56,NNE,22,4.9,4.9,77,0.00,,,0.00,VWS V14.01,2013-09-14 11:51:00,
2013-09-14 07:56:00,53.6,46.6,29.53,NNE,22,4.3,4.3,77,0.00,,,0.00,VWS V14.01,2013-09-14 11:56:00,
2013-09-14 08:01:00,53.8,47.1,29.53,NNE,22,4.3,4.3,78,0.00,,,0.00,VWS V14.01,2013-09-14 12:01:00,
2013-09-14 08:06:00,53.8,47.4,29.53,NNE,22,3.8,3.8,79,0.00,,,0.00,VWS V14.01,2013-09-14 12:06:00,
2013-09-14 08:11:00,54.0,47.3,29.53,NNE,22,3.4,3.4,78,0.00,,,0.00,VWS V14.01,2013-09-14 12:11:00,
2013-09-14 08:16:00,54.1,47.8,29.53,NNW,338,3.4,3.4,79,0.00,,,0.00,VWS V14.01,2013-09-14 12:16:00,
2013-09-14 08:21:00,54.1,47.8,29.53,NNE,22,4.0,4.0,79,0.00,,,0.00,VWS V14.01,2013-09-14 12:21:00,
2013-09-14 08:26:00,54.3,48.0,29.53,NNE,22,4.0,4.0,79,0.00,,,0.00,VWS V14.01,2013-09-14 12:26:00,
2013-09-14 08:31:00,54.5,48.1,29.53,NNE,22,5.8,5.8,79,0.00,,,0.00,VWS V14.01,2013-09-14 12:31:00,
2013-09-14 08:36:00,54.7,48.3,29.53,NNE,22,3.6,3.6,79,0.00,,,0.00,VWS V14.01,2013-09-14 12:36:00,
2013-09-14 08:41:00,54.7,48.0,29.56,North,0,4.9,4.9,78,0.00,,,0.00,VWS V14.01,2013-09-14 12:41:00,
2013-09-14 08:47:00,54.7,47.3,29.56,NNE,22,10.7,10.7,76,0.00,,,0.00,VWS V14.01,2013-09-14 12:47:00,
2013-09-14 08:52:00,54.5,46.8,29.56,NNE,22,7.8,7.8,75,0.00,,,0.00,VWS V14.01,2013-09-14 12:52:00,
2013-09-14 08:57:00,54.5,46.4,29.56,NNE,22,6.3,6.3,74,0.00,,,0.00,VWS V14.01,2013-09-14 12:57:00,
2013-09-14 09:02:00,54.5,46.4,29.56,NNE,22,7.6,7.6,74,0.00,,,0.00,VWS V14.01,2013-09-14 13:02:00,
2013-09-14 09:07:00,54.5,46.0,29.56,NNE,22,8.1,8.1,73,0.00,,,0.00,VWS V14.01,2013-09-14 13:07:00,
2013-09-14 09:12:00,54.5,45.7,29.56,NNE,22,4.9,4.9,72,0.00,,,0.00,VWS V14.01,2013-09-14 13:12:00,
2013-09-14 09:17:00,54.7,46.2,29.56,NE,45,6.3,6.3,73,0.00,,,0.00,VWS V14.01,2013-09-14 13:17:00,
2013-09-14 09:22:00,55.0,46.2,29.56,NNE,22,6.5,6.5,72,0.00,,,0.00,VWS V14.01,2013-09-14 13:22:00,
2013-09-14 09:27:00,55.2,46.4,29.56,NNE,22,4.9,4.9,72,0.00,,,0.00,VWS V14.01,2013-09-14 13:27:00,
2013-09-14 09:32:00,55.8,46.5,29.56,NE,45,10.3,10.3,71,0.00,,,0.00,VWS V14.01,2013-09-14 13:32:00,
2013-09-14 09:37:00,55.9,44.4,29.59,NE,45,11.0,11.0,65,0.00,,,0.00,VWS V14.01,2013-09-14 13:37:00,
2013-09-14 09:43:00,55.9,44.0,29.59,NNE,22,10.7,10.7,64,0.00,,,0.00,VWS V14.01,2013-09-14 13:43:00,
2013-09-14 09:48:00,55.9,44.0,29.59,NNE,22,10.1,10.1,64,0.00,,,0.00,VWS V14.01,2013-09-14 13:48:00,
2013-09-14 09:53:00,56.1,43.7,29.59,NNE,22,12.8,12.8,63,0.00,,,0.00,VWS V14.01,2013-09-14 13:53:00,
2013-09-14 09:58:00,56.1,42.9,29.59,NNE,22,13.0,13.0,61,0.00,,,0.00,VWS V14.01,2013-09-14 13:58:00,
2013-09-14 10:03:00,56.1,42.0,29.59,NNE,22,10.5,10.5,59,0.00,,,0.00,VWS V14.01,2013-09-14 14:03:00,
2013-09-14 10:08:00,56.3,41.7,29.59,North,0,8.7,8.7,58,0.00,,,0.00,VWS V14.01,2013-09-14 14:08:00,
2013-09-14 10:13:00,56.3,41.7,29.59,NNE,22,8.7,8.7,58,0.00,,,0.00,VWS V14.01,2013-09-14 14:13:00,
2013-09-14 10:18:00,56.5,41.9,29.59,NNE,22,8.1,8.1,58,0.00,,,0.00,VWS V14.01,2013-09-14 14:18:00,
2013-09-14 10:23:00,56.5,41.5,29.59,NNE,22,14.8,14.8,57,0.00,,,0.00,VWS V14.01,2013-09-14 14:23:00,
2013-09-14 10:28:00,56.5,41.9,29.59,NNE,22,10.7,10.7,58,0.00,,,0.00,VWS V14.01,2013-09-14 14:28:00,
2013-09-14 10:33:00,56.3,41.7,29.59,NNE,22,7.6,7.6,58,0.00,,,0.00,VWS V14.01,2013-09-14 14:33:00,
2013-09-14 10:38:00,56.3,41.3,29.59,NNE,22,11.0,11.0,57,0.00,,,0.00,VWS V14.01,2013-09-14 14:38:00,
2013-09-14 10:43:00,56.3,41.7,29.59,NNE,22,8.1,8.1,58,0.00,,,0.00,VWS V14.01,2013-09-14 14:43:00,
2013-09-14 10:48:00,56.5,41.5,29.59,NNE,22,8.1,8.1,57,0.00,,,0.00,VWS V14.01,2013-09-14 14:48:00,
2013-09-14 10:53:00,56.8,42.2,29.59,NNE,22,9.8,9.8,58,0.00,,,0.00,VWS V14.01,2013-09-14 14:53:00,
2013-09-14 10:58:00,56.8,41.3,29.59,North,0,9.0,9.0,56,0.00,,,0.00,VWS V14.01,2013-09-14 14:58:00,
2013-09-14 11:04:00,57.0,41.5,29.59,NNE,22,13.0,13.0,56,0.00,,,0.00,VWS V14.01,2013-09-14 15:04:00,
2013-09-14 11:09:00,57.0,41.0,29.59,NNE,22,8.5,8.5,55,0.00,,,0.00,VWS V14.01,2013-09-14 15:09:00,
2013-09-14 11:14:00,56.8,40.9,29.59,NNE,22,12.3,12.3,55,0.00,,,0.00,VWS V14.01,2013-09-14 15:14:00,
2013-09-14 11:19:00,56.8,40.4,29.59,North,0,12.8,12.8,54,0.00,,,0.00,VWS V14.01,2013-09-14 15:19:00,
2013-09-14 11:24:00,56.8,40.4,29.59,NNE,22,8.1,8.1,54,0.00,,,0.00,VWS V14.01,2013-09-14 15:24:00,
2013-09-14 11:29:00,56.8,40.9,29.59,NNE,22,6.5,6.5,55,0.00,,,0.00,VWS V14.01,2013-09-14 15:29:00,
2013-09-14 11:34:00,57.2,41.7,29.59,NE,45,6.5,6.5,56,0.00,,,0.00,VWS V14.01,2013-09-14 15:34:00,
2013-09-14 11:39:00,57.2,41.2,29.59,NNE,22,10.1,10.1,55,0.00,,,0.00,VWS V14.01,2013-09-14 15:39:00,
2013-09-14 11:44:00,57.2,41.2,29.59,North,0,8.5,8.5,55,0.00,,,0.00,VWS V14.01,2013-09-14 15:44:00,
2013-09-14 11:49:00,57.0,39.6,29.59,NNW,338,5.8,5.8,52,0.00,,,0.00,VWS V14.01,2013-09-14 15:49:00,
2013-09-14 11:54:00,57.2,40.7,29.59,North,0,7.8,7.8,54,0.00,,,0.00,VWS V14.01,2013-09-14 15:54:00,
2013-09-14 11:59:00,57.4,40.9,29.59,NNE,22,7.6,7.6,54,0.00,,,0.00,VWS V14.01,2013-09-14 15:59:00,
2013-09-14 12:05:00,57.6,41.1,29.59,NNW,338,8.1,8.1,54,0.00,,,0.00,VWS V14.01,2013-09-14 16:05:00,
2013-09-14 12:10:00,57.4,39.9,29.59,NNE,22,6.0,6.0,52,0.00,,,0.00,VWS V14.01,2013-09-14 16:10:00,
2013-09-14 12:15:00,57.6,40.6,29.59,North,0,7.4,7.4,53,0.00,,,0.00,VWS V14.01,2013-09-14 16:15:00,
2013-09-14 12:20:00,57.4,40.4,29.59,NNE,22,5.4,5.4,53,0.00,,,0.00,VWS V14.01,2013-09-14 16:20:00,
2013-09-14 12:25:00,57.6,41.1,29.59,NNW,338,5.8,5.8,54,0.00,,,0.00,VWS V14.01,2013-09-14 16:25:00,
2013-09-14 12:30:00,57.6,41.1,29.59,NNE,22,3.8,3.8,54,0.00,,,0.00,VWS V14.01,2013-09-14 16:30:00,
2013-09-14 12:35:00,57.6,41.1,29.59,North,0,4.0,4.0,54,0.00,,,0.00,VWS V14.01,2013-09-14 16:35:00,
2013-09-14 12:40:00,57.7,41.7,29.59,NNE,22,8.5,8.5,55,0.00,,,0.00,VWS V14.01,2013-09-14 16:40:00,
2013-09-14 12:45:00,57.7,41.2,29.59,NE,45,7.8,7.8,54,0.00,,,0.00,VWS V14.01,2013-09-14 16:45:00,
2013-09-14 12:50:00,57.9,41.9,29.59,NNW,338,6.3,6.3,55,0.00,,,0.00,VWS V14.01,2013-09-14 16:50:00,
2013-09-14 12:55:00,58.1,42.5,29.59,NNE,22,6.5,6.5,56,0.00,,,0.00,VWS V14.01,2013-09-14 16:55:00,
2013-09-14 13:00:00,58.1,42.0,29.59,NNW,338,5.4,5.4,55,0.00,,,0.00,VWS V14.01,2013-09-14 17:00:00,
2013-09-14 13:05:00,57.9,41.9,29.59,NNE,22,7.6,7.6,55,0.00,,,0.00,VWS V14.01,2013-09-14 17:05:00,
2013-09-14 13:10:00,57.9,41.9,29.59,NNE,22,7.8,7.8,55,0.00,,,0.00,VWS V14.01,2013-09-14 17:10:00,
2013-09-14 13:15:00,58.1,42.0,29.59,NW,315,6.3,6.3,55,0.00,,,0.00,VWS V14.01,2013-09-14 17:15:00,
2013-09-14 13:20:00,57.9,41.4,29.59,NNE,22,7.4,7.4,54,0.00,,,0.00,VWS V14.01,2013-09-14 17:20:00,
2013-09-14 13:25:00,57.9,41.4,29.59,NNE,22,8.5,8.5,54,0.00,,,0.00,VWS V14.01,2013-09-14 17:25:00,
2013-09-14 13:30:00,58.1,42.0,29.59,North,0,8.5,8.5,55,0.00,,,0.00,VWS V14.01,2013-09-14 17:30:00,
2013-09-14 13:36:00,58.1,41.1,29.59,NNE,22,9.4,9.4,53,0.00,,,0.00,VWS V14.01,2013-09-14 17:36:00,
2013-09-14 13:41:00,58.3,41.7,29.59,NNE,22,8.7,8.7,54,0.00,,,0.00,VWS V14.01,2013-09-14 17:41:00,
2013-09-14 13:46:00,58.5,41.9,29.59,North,0,7.4,7.4,54,0.00,,,0.00,VWS V14.01,2013-09-14 17:46:00,
2013-09-14 13:51:00,58.6,42.5,29.59,NE,45,10.1,10.1,55,0.00,,,0.00,VWS V14.01,2013-09-14 17:51:00,
2013-09-14 13:56:00,58.6,42.1,29.59,NNE,22,10.1,10.1,54,0.00,,,0.00,VWS V14.01,2013-09-14 17:56:00,
2013-09-14 14:01:00,58.8,42.2,29.59,NNE,22,7.6,7.6,54,0.00,,,0.00,VWS V14.01,2013-09-14 18:01:00,
2013-09-14 14:06:00,58.8,41.7,29.59,NNE,22,3.8,3.8,53,0.00,,,0.00,VWS V14.01,2013-09-14 18:06:00,
2013-09-14 14:11:00,58.8,42.2,29.59,NNE,22,7.8,7.8,54,0.00,,,0.00,VWS V14.01,2013-09-14 18:11:00,
2013-09-14 14:16:00,59.0,41.9,29.59,NNE,22,8.5,8.5,53,0.00,,,0.00,VWS V14.01,2013-09-14 18:16:00,
2013-09-14 14:21:00,59.2,42.1,29.59,NNW,338,3.8,3.8,53,0.00,,,0.00,VWS V14.01,2013-09-14 18:21:00,
2013-09-14 14:26:00,59.4,42.7,29.56,NNE,22,7.6,7.6,54,0.00,,,0.00,VWS V14.01,2013-09-14 18:26:00,
2013-09-14 14:31:00,59.5,42.4,29.56,NNE,22,4.9,4.9,53,0.00,,,0.00,VWS V14.01,2013-09-14 18:31:00,
2013-09-14 14:36:00,59.7,42.6,29.56,North,0,4.7,4.7,53,0.00,,,0.00,VWS V14.01,2013-09-14 18:36:00,
2013-09-14 14:41:00,59.9,42.2,29.56,NE,45,2.9,2.9,52,0.00,,,0.00,VWS V14.01,2013-09-14 18:41:00,
2013-09-14 14:46:00,60.1,42.9,29.56,NE,45,4.9,4.9,53,0.00,,,0.00,VWS V14.01,2013-09-14 18:46:00,
2013-09-14 14:51:00,60.1,41.9,29.56,NNW,338,4.9,4.9,51,0.00,,,0.00,VWS V14.01,2013-09-14 18:51:00,
2013-09-14 14:56:00,59.9,41.2,29.56,NNW,338,7.8,7.8,50,0.00,,,0.00,VWS V14.01,2013-09-14 18:56:00,
2013-09-14 15:01:00,59.9,42.2,29.56,North,0,3.4,3.4,52,0.00,,,0.00,VWS V14.01,2013-09-14 19:01:00,
2013-09-14 15:06:00,60.3,42.6,29.56,NNE,22,6.9,6.9,52,0.00,,,0.00,VWS V14.01,2013-09-14 19:06:00,
2013-09-14 15:11:00,60.1,42.4,29.56,North,0,8.5,8.5,52,0.00,,,0.00,VWS V14.01,2013-09-14 19:11:00,
2013-09-14 15:16:00,60.1,41.9,29.56,NNE,22,6.5,6.5,51,0.00,,,0.00,VWS V14.01,2013-09-14 19:16:00,
2013-09-14 15:21:00,60.1,42.4,29.56,NNE,22,5.8,5.8,52,0.00,,,0.00,VWS V14.01,2013-09-14 19:21:00,
2013-09-14 15:26:00,60.1,41.9,29.56,North,0,4.3,4.3,51,0.00,,,0.00,VWS V14.01,2013-09-14 19:26:00,
2013-09-14 15:31:00,60.4,42.8,29.56,NNW,338,2.9,2.9,52,0.00,,,0.00,VWS V14.01,2013-09-14 19:31:00,
2013-09-14 15:36:00,60.4,42.8,29.56,NNW,338,5.4,5.4,52,0.00,,,0.00,VWS V14.01,2013-09-14 19:36:00,
2013-09-14 15:41:00,60.3,41.6,29.56,NNE,22,6.5,6.5,50,0.00,,,0.00,VWS V14.01,2013-09-14 19:41:00,
2013-09-14 15:46:00,59.9,41.2,29.56,NNE,22,6.3,6.3,50,0.00,,,0.00,VWS V14.01,2013-09-14 19:46:00,
2013-09-14 15:51:00,59.7,41.6,29.56,NE,45,2.0,2.0,51,0.00,,,0.00,VWS V14.01,2013-09-14 19:51:00,
2013-09-14 15:56:00,59.9,41.8,29.56,NNW,338,1.3,1.3,51,0.00,,,0.00,VWS V14.01,2013-09-14 19:56:00,
2013-09-14 16:01:00,60.3,42.1,29.56,NNE,22,4.0,4.0,51,0.00,,,0.00,VWS V14.01,2013-09-14 20:01:00,
2013-09-14 16:06:00,60.4,42.2,29.56,NNE,22,7.6,7.6,51,0.00,,,0.00,VWS V14.01,2013-09-14 20:06:00,
2013-09-14 16:11:00,60.4,42.2,29.56,NNW,338,3.4,3.4,51,0.00,,,0.00,VWS V14.01,2013-09-14 20:11:00,
2013-09-14 16:16:00,60.6,41.9,29.56,WSW,248,1.6,1.6,50,0.00,,,0.00,VWS V14.01,2013-09-14 20:16:00,
2013-09-14 16:21:00,61.0,42.7,29.56,ENE,68,3.1,3.1,51,0.00,,,0.00,VWS V14.01,2013-09-14 20:21:00,
2013-09-14 16:26:00,61.0,42.2,29.53,NNE,22,5.8,5.8,50,0.00,,,0.00,VWS V14.01,2013-09-14 20:26:00,
2013-09-14 16:31:00,60.8,42.1,29.53,NE,45,4.0,4.0,50,0.00,,,0.00,VWS V14.01,2013-09-14 20:31:00,
2013-09-14 16:36:00,61.0,42.2,29.53,East,90,1.1,1.1,50,0.00,,,0.00,VWS V14.01,2013-09-14 20:36:00,
2013-09-14 16:41:00,60.8,42.1,29.56,ESE,112,1.6,1.6,50,0.00,,,0.00,VWS V14.01,2013-09-14 20:41:00,
2013-09-14 16:46:00,61.0,42.2,29.56,NE,45,5.6,5.6,50,0.00,,,0.00,VWS V14.01,2013-09-14 20:46:00,
2013-09-14 16:51:00,61.0,42.2,29.56,NNE,22,2.5,2.5,50,0.00,,,0.00,VWS V14.01,2013-09-14 20:51:00,
2013-09-14 16:56:00,61.0,42.2,29.56,NNE,22,2.5,2.5,50,0.00,,,0.00,VWS V14.01,2013-09-14 20:56:00,
2013-09-14 17:01:00,61.0,42.2,29.56,NNE,22,2.5,2.5,50,0.00,,,0.00,VWS V14.01,2013-09-14 21:01:00,
2013-09-14 17:06:00,61.0,42.2,29.56,East,90,0.9,0.9,50,0.00,,,0.00,VWS V14.01,2013-09-14 21:06:00,
2013-09-14 17:11:00,61.0,42.2,29.56,SSE,158,2.9,2.9,50,0.00,,,0.00,VWS V14.01,2013-09-14 21:11:00,
2013-09-14 17:16:00,61.0,42.2,29.56,ENE,68,2.9,2.9,50,0.00,,,0.00,VWS V14.01,2013-09-14 21:16:00,
2013-09-14 17:22:00,61.2,42.4,29.56,SSE,158,2.7,2.7,50,0.00,,,0.00,VWS V14.01,2013-09-14 21:22:00,
2013-09-14 17:27:00,61.7,42.4,29.56,NE,45,5.6,5.6,49,0.00,,,0.00,VWS V14.01,2013-09-14 21:27:00,
2013-09-14 17:32:00,62.1,43.2,29.56,SSW,202,2.5,2.5,50,0.00,,,0.00,VWS V14.01,2013-09-14 21:32:00,
2013-09-14 17:37:00,62.4,43.5,29.56,SE,135,3.8,3.8,50,0.00,,,0.00,VWS V14.01,2013-09-14 21:37:00,
2013-09-14 17:42:00,63.0,44.0,29.56,ENE,68,2.9,2.9,50,0.00,,,0.00,VWS V14.01,2013-09-14 21:42:00,
2013-09-14 17:47:00,63.1,43.7,29.56,NE,45,2.5,2.5,49,0.00,,,0.00,VWS V14.01,2013-09-14 21:47:00,
2013-09-14 17:52:00,63.1,43.7,29.56,ENE,68,2.5,2.5,49,0.00,,,0.00,VWS V14.01,2013-09-14 21:52:00,
2013-09-14 17:57:00,62.8,43.4,29.56,NE,45,2.0,2.0,49,0.00,,,0.00,VWS V14.01,2013-09-14 21:57:00,
2013-09-14 18:02:00,62.6,43.2,29.56,East,90,4.0,4.0,49,0.00,,,0.00,VWS V14.01,2013-09-14 22:02:00,
2013-09-14 18:07:00,62.6,43.2,29.56,NE,45,2.5,2.5,49,0.00,,,0.00,VWS V14.01,2013-09-14 22:07:00,
2013-09-14 18:12:00,62.6,43.2,29.56,ENE,68,0.0,0.0,49,0.00,,,0.00,VWS V14.01,2013-09-14 22:12:00,
2013-09-14 18:17:00,62.2,42.9,29.56,ENE,68,0.0,0.0,49,0.00,,,0.00,VWS V14.01,2013-09-14 22:17:00,
2013-09-14 18:23:00,62.1,42.7,29.56,ENE,68,0.0,0.0,49,0.00,,,0.00,VWS V14.01,2013-09-14 22:23:00,
2013-09-14 18:28:00,61.7,43.4,29.56,ENE,68,0.0,0.0,51,0.00,,,0.00,VWS V14.01,2013-09-14 22:28:00,
2013-09-14 18:33:00,61.5,43.2,29.56,ESE,112,1.3,1.3,51,0.00,,,0.00,VWS V14.01,2013-09-14 22:33:00,
2013-09-14 18:38:00,61.3,43.6,29.56,SSE,158,2.5,2.5,52,0.00,,,0.00,VWS V14.01,2013-09-14 22:38:00,
2013-09-14 18:43:00,61.0,43.8,29.56,SSE,158,0.0,0.0,53,0.00,,,0.00,VWS V14.01,2013-09-14 22:43:00,
2013-09-14 18:48:00,60.8,44.1,29.56,SE,135,1.3,1.3,54,0.00,,,0.00,VWS V14.01,2013-09-14 22:48:00,
2013-09-14 18:52:00,60.6,44.4,29.59,SSE,158,1.6,1.6,55,0.00,,,0.00,VWS V14.01,2013-09-14 22:52:00,
2013-09-14 18:57:00,60.3,43.6,29.59,SSW,202,2.0,2.0,54,0.00,,,0.00,VWS V14.01,2013-09-14 22:57:00,
2013-09-14 19:02:00,59.7,43.1,29.59,South,180,2.5,2.5,54,0.00,,,0.00,VWS V14.01,2013-09-14 23:02:00,
2013-09-14 19:07:00,59.4,43.2,29.59,SSE,158,0.0,0.0,55,0.00,,,0.00,VWS V14.01,2013-09-14 23:07:00,
2013-09-14 19:12:00,59.0,42.9,29.59,SE,135,0.0,0.0,55,0.00,,,0.00,VWS V14.01,2013-09-14 23:12:00,
2013-09-14 19:17:00,58.8,42.7,29.59,SE,135,0.9,0.9,55,0.00,,,0.00,VWS V14.01,2013-09-14 23:17:00,
2013-09-14 19:22:00,58.3,42.7,29.59,East,90,0.0,0.0,56,0.00,,,0.00,VWS V14.01,2013-09-14 23:22:00,
2013-09-14 19:27:00,58.1,42.0,29.59,WSW,248,1.1,1.1,55,0.00,,,0.00,VWS V14.01,2013-09-14 23:27:00,
2013-09-14 19:32:00,57.9,41.9,29.59,SSW,202,0.0,0.0,55,0.00,,,0.00,VWS V14.01,2013-09-14 23:32:00,
2013-09-14 19:37:00,57.6,42.0,29.59,SSW,202,0.0,0.0,56,0.00,,,0.00,VWS V14.01,2013-09-14 23:37:00,
2013-09-14 19:42:00,57.2,41.7,29.59,SW,225,0.0,0.0,56,0.00,,,0.00,VWS V14.01,2013-09-14 23:42:00,
2013-09-14 19:48:00,57.0,42.0,29.59,South,180,0.0,0.0,57,0.00,,,0.00,VWS V14.01,2013-09-14 23:48:00,
2013-09-14 19:53:00,56.8,41.8,29.59,West,270,0.0,0.0,57,0.00,,,0.00,VWS V14.01,2013-09-14 23:53:00,
2013-09-14 19:58:00,56.7,41.6,29.59,West,270,0.0,0.0,57,0.00,,,0.00,VWS V14.01,2013-09-14 23:58:00,
2013-09-14 20:03:00,56.3,41.3,29.59,WSW,248,0.0,0.0,57,0.00,,,0.00,VWS V14.01,2013-09-15 00:03:00,
2013-09-14 20:08:00,55.9,41.8,29.59,SSE,158,0.0,0.0,59,0.00,,,0.00,VWS V14.01,2013-09-15 00:08:00,
2013-09-14 20:13:00,55.8,41.7,29.59,WSW,248,0.0,0.0,59,0.00,,,0.00,VWS V14.01,2013-09-15 00:13:00,
2013-09-14 20:18:00,55.4,41.3,29.59,SW,225,0.0,0.0,59,0.00,,,0.00,VWS V14.01,2013-09-15 00:18:00,
2013-09-14 20:23:00,55.2,42.0,29.59,South,180,0.0,0.0,61,0.00,,,0.00,VWS V14.01,2013-09-15 00:23:00,
2013-09-14 20:28:00,55.0,41.8,29.59,SSW,202,1.6,1.6,61,0.00,,,0.00,VWS V14.01,2013-09-15 00:28:00,
2013-09-14 20:33:00,54.7,41.5,29.59,SSW,202,2.9,2.9,61,0.00,,,0.00,VWS V14.01,2013-09-15 00:33:00,
2013-09-14 20:38:00,54.7,42.3,29.62,NE,45,2.5,2.5,63,0.00,,,0.00,VWS V14.01,2013-09-15 00:38:00,
2013-09-14 20:44:00,54.3,41.6,29.62,ENE,68,0.0,0.0,62,0.00,,,0.00,VWS V14.01,2013-09-15 00:44:00,
2013-09-14 20:49:00,54.0,41.7,29.62,WNW,292,0.0,0.0,63,0.00,,,0.00,VWS V14.01,2013-09-15 00:49:00,
2013-09-14 20:54:00,53.6,41.7,29.62,WSW,248,0.0,0.0,64,0.00,,,0.00,VWS V14.01,2013-09-15 00:54:00,
2013-09-14 20:59:00,53.4,41.6,29.62,SSW,202,0.0,0.0,64,0.00,,,0.00,VWS V14.01,2013-09-15 00:59:00,
2013-09-14 21:04:00,53.2,41.8,29.62,SW,225,0.0,0.0,65,0.00,,,0.00,VWS V14.01,2013-09-15 01:04:00,
2013-09-14 21:09:00,53.1,41.6,29.62,WSW,248,0.0,0.0,65,0.00,,,0.00,VWS V14.01,2013-09-15 01:09:00,
2013-09-14 21:14:00,53.2,41.8,29.62,SSW,202,0.0,0.0,65,0.00,,,0.00,VWS V14.01,2013-09-15 01:14:00,
2013-09-14 21:19:00,53.1,41.6,29.62,WSW,248,0.0,0.0,65,0.00,,,0.00,VWS V14.01,2013-09-15 01:19:00,
2013-09-14 21:24:00,52.9,41.8,29.62,WSW,248,0.0,0.0,66,0.00,,,0.00,VWS V14.01,2013-09-15 01:24:00,
2013-09-14 21:29:00,52.9,41.8,29.62,WSW,248,0.0,0.0,66,0.00,,,0.00,VWS V14.01,2013-09-15 01:29:00,
2013-09-14 21:34:00,52.5,41.5,29.62,WSW,248,0.0,0.0,66,0.00,,,0.00,VWS V14.01,2013-09-15 01:34:00,
2013-09-14 21:39:00,52.3,41.7,29.62,WSW,248,0.0,0.0,67,0.00,,,0.00,VWS V14.01,2013-09-15 01:39:00,
2013-09-14 21:44:00,52.2,41.5,29.62,WSW,248,0.0,0.0,67,0.00,,,0.00,VWS V14.01,2013-09-15 01:44:00,
2013-09-14 21:49:00,52.0,41.4,29.62,WSW,248,0.0,0.0,67,0.00,,,0.00,VWS V14.01,2013-09-15 01:49:00,
2013-09-14 21:55:00,51.6,41.4,29.62,WSW,248,0.0,0.0,68,0.00,,,0.00,VWS V14.01,2013-09-15 01:55:00,
2013-09-14 22:00:00,51.4,41.2,29.62,WSW,248,0.0,0.0,68,0.00,,,0.00,VWS V14.01,2013-09-15 02:00:00,
2013-09-14 22:05:00,51.4,41.2,29.62,WSW,248,0.0,0.0,68,0.00,,,0.00,VWS V14.01,2013-09-15 02:05:00,
2013-09-14 22:10:00,51.4,41.2,29.62,WSW,248,0.0,0.0,68,0.00,,,0.00,VWS V14.01,2013-09-15 02:10:00,
2013-09-14 22:15:00,51.3,41.5,29.62,WSW,248,0.0,0.0,69,0.00,,,0.00,VWS V14.01,2013-09-15 02:15:00,
2013-09-14 22:20:00,51.1,41.3,29.62,WSW,248,0.0,0.0,69,0.00,,,0.00,VWS V14.01,2013-09-15 02:20:00,
2013-09-14 22:25:00,50.7,40.9,29.62,NNW,338,0.0,0.0,69,0.00,,,0.00,VWS V14.01,2013-09-15 02:25:00,
2013-09-14 22:30:00,50.5,40.8,29.62,NNW,338,0.0,0.0,69,0.00,,,0.00,VWS V14.01,2013-09-15 02:30:00,
2013-09-14 22:35:00,50.4,41.0,29.62,NNW,338,0.0,0.0,70,0.00,,,0.00,VWS V14.01,2013-09-15 02:35:00,
2013-09-14 22:40:00,50.2,40.8,29.62,West,270,0.0,0.0,70,0.00,,,0.00,VWS V14.01,2013-09-15 02:40:00,
2013-09-14 22:45:00,50.2,40.8,29.62,West,270,0.0,0.0,70,0.00,,,0.00,VWS V14.01,2013-09-15 02:45:00,
2013-09-14 22:50:00,50.2,41.2,29.62,West,270,0.0,0.0,71,0.00,,,0.00,VWS V14.01,2013-09-15 02:50:00,
2013-09-14 22:55:00,50.0,41.0,29.62,WSW,248,0.9,0.9,71,0.00,,,0.00,VWS V14.01,2013-09-15 02:55:00,
2013-09-14 23:00:00,49.6,41.0,29.62,SW,225,1.1,1.1,72,0.00,,,0.00,VWS V14.01,2013-09-15 03:00:00,
2013-09-14 23:06:00,49.3,41.0,29.62,SSW,202,2.2,2.2,73,0.00,,,0.00,VWS V14.01,2013-09-15 03:06:00,
2013-09-14 23:11:00,49.3,41.0,29.62,SSW,202,2.0,2.0,73,0.00,,,0.00,VWS V14.01,2013-09-15 03:11:00,
2013-09-14 23:16:00,49.1,41.2,29.62,SW,225,1.3,1.3,74,0.00,,,0.00,VWS V14.01,2013-09-15 03:16:00,
2013-09-14 23:21:00,49.1,41.5,29.62,SSW,202,2.2,2.2,75,0.00,,,0.00,VWS V14.01,2013-09-15 03:21:00,
2013-09-14 23:26:00,48.9,41.4,29.62,WSW,248,0.0,0.0,75,0.00,,,0.00,VWS V14.01,2013-09-15 03:26:00,
2013-09-14 23:31:00,48.9,41.4,29.62,WSW,248,0.0,0.0,75,0.00,,,0.00,VWS V14.01,2013-09-15 03:31:00,
2013-09-14 23:36:00,48.7,41.2,29.62,WSW,248,0.0,0.0,75,0.00,,,0.00,VWS V14.01,2013-09-15 03:36:00,
2013-09-14 23:41:00,48.6,41.0,29.65,SW,225,0.0,0.0,75,0.00,,,0.00,VWS V14.01,2013-09-15 03:41:00,
2013-09-14 23:46:00,48.4,40.8,29.65,SSW,202,0.0,0.0,75,0.00,,,0.00,VWS V14.01,2013-09-15 03:46:00,
2013-09-14 23:51:00,48.4,40.8,29.65,WSW,248,0.0,0.0,75,0.00,,,0.00,VWS V14.01,2013-09-15 03:51:00,
2013-09-14 23:56:00,48.4,40.8,29.65,WSW,248,0.0,0.0,75,0.00,,,0.00,VWS V14.01,2013-09-15 03:56:00,